,,PressureMeas_1m,,PRMeasQMR101_1,,RHStat155_1m_1,,SRMeasQMS101R_1m,,TAStat155_1m_1,,GenWind_1,,GenWind_1,
2019-07-09, 00:00:07,VALID,920.869,VALID,0.0,VALID,99.718,VALID,-0.049,VALID,19.756,VALID,100.0,VALID,0.0,
2019-07-09, 00:01:07,VALID,920.863,VALID,0.0,VALID,99.713,VALID,-0.058,VALID,19.768,VALID,96.0,VALID,0.0,
2019-07-09, 00:02:07,VALID,920.854,VALID,0.0,VALID,99.716,VALID,-0.049,VALID,19.752,VALID,96.0,VALID,0.0,
2019-07-09, 00:03:07,VALID,920.843,VALID,0.0,VALID,99.691,VALID,-0.01,VALID,19.691,VALID,100.0,VALID,0.0,
2019-07-09, 00:04:07,VALID,920.809,VALID,0.0,VALID,99.651,VALID,-0.008,VALID,19.689,VALID,92.0,VALID,0.0,
2019-07-09, 00:05:07,VALID,920.812,VALID,0.0,VALID,99.644,VALID,-0.007,VALID,19.685,VALID,76.0,VALID,0.0,
2019-07-09, 00:06:07,VALID,920.823,VALID,0.0,VALID,99.577,VALID,-0.008,VALID,19.622,VALID,60.0,VALID,0.0,
2019-07-09, 00:07:07,VALID,920.817,VALID,0.0,VALID,99.565,VALID,-0.021,VALID,19.593,VALID,68.0,VALID,0.0,
2019-07-09, 00:08:07,VALID,920.801,VALID,0.0,VALID,99.527,VALID,-0.025,VALID,19.582,VALID,75.0,VALID,0.0,
2019-07-09, 00:09:07,VALID,920.776,VALID,0.0,VALID,99.472,VALID,-0.013,VALID,19.566,VALID,74.0,VALID,0.0,
2019-07-09, 00:10:07,VALID,920.767,VALID,0.0,VALID,99.454,VALID,-0.007,VALID,19.548,VALID,83.0,VALID,0.0,
2019-07-09, 00:11:07,VALID,920.758,VALID,0.0,VALID,99.419,VALID,-0.018,VALID,19.549,VALID,99.0,VALID,0.0,
2019-07-09, 00:12:07,VALID,920.739,VALID,0.0,VALID,99.413,VALID,-0.018,VALID,19.577,VALID,87.0,VALID,0.0,
2019-07-09, 00:13:07,VALID,920.717,VALID,0.0,VALID,99.413,VALID,-0.013,VALID,19.594,VALID,94.0,VALID,0.0,
2019-07-09, 00:14:07,VALID,920.703,VALID,0.0,VALID,99.44,VALID,-0.019,VALID,19.617,VALID,113.0,VALID,0.0,
2019-07-09, 00:15:07,VALID,920.684,VALID,0.0,VALID,99.475,VALID,-0.004,VALID,19.638,VALID,105.0,VALID,0.0,
2019-07-09, 00:16:07,VALID,920.673,VALID,0.0,VALID,99.508,VALID,0.002,VALID,19.66,VALID,85.0,VALID,0.0,
2019-07-09, 00:17:07,VALID,920.63,VALID,0.0,VALID,99.508,VALID,-0.013,VALID,19.623,VALID,103.0,VALID,0.0,
2019-07-09, 00:18:07,VALID,920.632,VALID,0.0,VALID,99.512,VALID,-0.032,VALID,19.598,VALID,84.0,VALID,0.0,
2019-07-09, 00:19:07,VALID,920.621,VALID,0.0,VALID,99.5,VALID,-0.01,VALID,19.592,VALID,81.0,VALID,0.0,
2019-07-09, 00:20:07,VALID,920.595,VALID,0.0,VALID,99.494,VALID,-0.005,VALID,19.597,VALID,95.0,VALID,0.0,
2019-07-09, 00:21:07,VALID,920.575,VALID,0.0,VALID,99.51,VALID,-0.017,VALID,19.609,VALID,92.0,VALID,0.0,
2019-07-09, 00:22:07,VALID,920.557,VALID,0.0,VALID,99.516,VALID,-0.012,VALID,19.623,VALID,100.0,VALID,0.0,
2019-07-09, 00:23:07,VALID,920.509,VALID,0.0,VALID,99.542,VALID,-0.018,VALID,19.634,VALID,96.0,VALID,0.0,
2019-07-09, 00:24:07,VALID,920.476,VALID,0.0,VALID,99.559,VALID,-0.018,VALID,19.649,VALID,91.0,VALID,0.0,
2019-07-09, 00:25:07,VALID,920.443,VALID,0.2,VALID,99.569,VALID,-0.028,VALID,19.624,VALID,95.0,VALID,0.0,
2019-07-09, 00:26:07,VALID,920.425,VALID,0.0,VALID,99.584,VALID,-0.027,VALID,19.607,VALID,93.0,VALID,0.0,
2019-07-09, 00:27:07,VALID,920.385,VALID,0.0,VALID,99.571,VALID,0.004,VALID,19.603,VALID,92.0,VALID,0.0,
2019-07-09, 00:28:07,VALID,920.369,VALID,0.0,VALID,99.55,VALID,-0.019,VALID,19.594,VALID,100.0,VALID,0.0,
2019-07-09, 00:29:07,VALID,920.342,VALID,0.0,VALID,99.564,VALID,-0.017,VALID,19.589,VALID,99.0,VALID,0.0,
2019-07-09, 00:30:07,VALID,920.296,VALID,0.0,VALID,99.574,VALID,-0.024,VALID,19.59,VALID,96.0,VALID,0.0,
2019-07-09, 00:31:07,VALID,920.262,VALID,0.0,VALID,99.568,VALID,-0.015,VALID,19.58,VALID,88.0,VALID,0.0,
2019-07-09, 00:32:07,VALID,920.248,VALID,0.0,VALID,99.564,VALID,-0.007,VALID,19.531,VALID,97.0,VALID,0.0,
2019-07-09, 00:33:07,VALID,920.216,VALID,0.0,VALID,99.53,VALID,-0.012,VALID,19.447,VALID,84.0,VALID,0.0,
2019-07-09, 00:34:07,VALID,920.172,VALID,0.0,VALID,99.477,VALID,-0.032,VALID,19.382,VALID,76.0,VALID,0.0,
2019-07-09, 00:35:07,VALID,920.172,VALID,0.0,VALID,99.396,VALID,-0.018,VALID,19.329,VALID,81.0,VALID,0.0,
2019-07-09, 00:36:07,VALID,920.143,VALID,0.0,VALID,99.375,VALID,-0.021,VALID,19.306,VALID,78.0,VALID,0.0,
2019-07-09, 00:37:07,VALID,920.129,VALID,0.0,VALID,99.282,VALID,-0.034,VALID,19.247,VALID,94.0,VALID,0.0,
2019-07-09, 00:38:07,VALID,920.091,VALID,0.0,VALID,99.202,VALID,-0.022,VALID,19.229,VALID,106.0,VALID,0.0,
2019-07-09, 00:39:07,VALID,920.044,VALID,0.0,VALID,99.201,VALID,-0.044,VALID,19.264,VALID,115.0,VALID,0.0,
2019-07-09, 00:40:07,VALID,920.026,VALID,0.0,VALID,99.203,VALID,-0.013,VALID,19.279,VALID,128.0,VALID,0.0,
2019-07-09, 00:41:07,VALID,920.007,VALID,0.0,VALID,99.253,VALID,-0.025,VALID,19.331,VALID,149.0,VALID,0.0,
2019-07-09, 00:42:07,VALID,920.017,VALID,0.0,VALID,99.325,VALID,-0.031,VALID,19.405,VALID,153.0,VALID,0.0,
2019-07-09, 00:43:07,VALID,920.006,VALID,0.0,VALID,99.367,VALID,-0.043,VALID,19.467,VALID,100.0,VALID,0.0,
2019-07-09, 00:44:07,VALID,919.995,VALID,0.0,VALID,99.417,VALID,-0.037,VALID,19.504,VALID,114.0,VALID,0.0,
2019-07-09, 00:45:07,VALID,919.981,VALID,0.0,VALID,99.41,VALID,-0.025,VALID,19.47,VALID,123.0,VALID,0.0,
2019-07-09, 00:46:07,VALID,919.945,VALID,0.0,VALID,99.453,VALID,-0.019,VALID,19.474,VALID,116.0,VALID,0.0,
2019-07-09, 00:47:07,VALID,919.924,VALID,0.0,VALID,99.453,VALID,-0.028,VALID,19.459,VALID,114.0,VALID,0.0,
2019-07-09, 00:48:07,VALID,919.908,VALID,0.0,VALID,99.43,VALID,-0.021,VALID,19.402,VALID,120.0,VALID,0.0,
2019-07-09, 00:49:07,VALID,919.885,VALID,0.0,VALID,99.368,VALID,-0.002,VALID,19.355,VALID,109.0,VALID,0.0,
2019-07-09, 00:50:07,VALID,919.872,VALID,0.0,VALID,99.335,VALID,-0.013,VALID,19.328,VALID,107.0,VALID,0.0,
2019-07-09, 00:51:07,VALID,919.87,VALID,0.0,VALID,99.314,VALID,-0.005,VALID,19.307,VALID,104.0,VALID,0.0,
2019-07-09, 00:52:07,VALID,919.839,VALID,0.0,VALID,99.302,VALID,-0.013,VALID,19.291,VALID,111.0,VALID,0.0,
2019-07-09, 00:53:07,VALID,919.808,VALID,0.0,VALID,99.266,VALID,-0.02,VALID,19.26,VALID,110.0,VALID,0.0,
2019-07-09, 00:54:07,VALID,919.786,VALID,0.0,VALID,99.189,VALID,-0.01,VALID,19.241,VALID,105.0,VALID,0.0,
2019-07-09, 00:55:07,VALID,919.769,VALID,0.0,VALID,99.18,VALID,-0.013,VALID,19.232,VALID,115.0,VALID,0.0,
2019-07-09, 00:56:07,VALID,919.754,VALID,0.0,VALID,99.117,VALID,-0.015,VALID,19.214,VALID,121.0,VALID,0.0,
2019-07-09, 00:57:07,VALID,919.744,VALID,0.0,VALID,99.063,VALID,-0.003,VALID,19.212,VALID,120.0,VALID,0.0,
2019-07-09, 00:58:07,VALID,919.734,VALID,0.0,VALID,98.978,VALID,-0.011,VALID,19.21,VALID,111.0,VALID,0.0,
2019-07-09, 00:59:07,VALID,919.709,VALID,0.0,VALID,98.951,VALID,-0.005,VALID,19.211,VALID,105.0,VALID,0.0,
2019-07-09, 01:00:07,VALID,919.691,VALID,0.0,VALID,98.919,VALID,-0.006,VALID,19.2,VALID,114.0,VALID,0.0,
2019-07-09, 01:01:07,VALID,919.684,VALID,0.0,VALID,98.966,VALID,-0.004,VALID,19.216,VALID,116.0,VALID,0.0,
2019-07-09, 01:02:07,VALID,919.674,VALID,0.0,VALID,98.979,VALID,0.003,VALID,19.211,VALID,114.0,VALID,0.0,
2019-07-09, 01:03:07,VALID,919.656,VALID,0.0,VALID,98.967,VALID,-0.03,VALID,19.214,VALID,103.0,VALID,0.0,
2019-07-09, 01:04:07,VALID,919.647,VALID,0.0,VALID,98.977,VALID,-0.007,VALID,19.211,VALID,99.0,VALID,0.0,
2019-07-09, 01:05:07,VALID,919.623,VALID,0.0,VALID,98.996,VALID,-0.003,VALID,19.213,VALID,101.0,VALID,0.0,
2019-07-09, 01:06:07,VALID,919.612,VALID,0.0,VALID,98.969,VALID,-0.011,VALID,19.187,VALID,100.0,VALID,0.0,
2019-07-09, 01:07:07,VALID,919.589,VALID,0.0,VALID,98.867,VALID,-0.023,VALID,19.149,VALID,103.0,VALID,0.0,
2019-07-09, 01:08:07,VALID,919.57,VALID,0.0,VALID,98.711,VALID,-0.022,VALID,19.11,VALID,100.0,VALID,0.0,
2019-07-09, 01:09:07,VALID,919.538,VALID,0.0,VALID,98.552,VALID,-0.033,VALID,19.107,VALID,104.0,VALID,0.0,
2019-07-09, 01:10:07,VALID,919.51,VALID,0.0,VALID,98.484,VALID,0.003,VALID,19.1,VALID,107.0,VALID,0.0,
2019-07-09, 01:11:07,VALID,919.462,VALID,0.0,VALID,98.461,VALID,-0.005,VALID,19.085,VALID,114.0,VALID,0.0,
2019-07-09, 01:12:07,VALID,919.437,VALID,0.0,VALID,98.46,VALID,-0.006,VALID,19.085,VALID,110.0,VALID,0.0,
2019-07-09, 01:13:07,VALID,919.391,VALID,0.0,VALID,98.533,VALID,-0.015,VALID,19.084,VALID,112.0,VALID,0.0,
2019-07-09, 01:14:07,VALID,919.369,VALID,0.0,VALID,98.562,VALID,-0.015,VALID,19.082,VALID,112.0,VALID,0.0,
2019-07-09, 01:15:07,VALID,919.352,VALID,0.0,VALID,98.611,VALID,-0.016,VALID,19.091,VALID,114.0,VALID,0.0,
2019-07-09, 01:16:07,VALID,919.332,VALID,0.0,VALID,98.655,VALID,-0.019,VALID,19.079,VALID,116.0,VALID,0.0,
2019-07-09, 01:17:07,VALID,919.304,VALID,0.0,VALID,98.682,VALID,-0.019,VALID,19.061,VALID,115.0,VALID,0.0,
2019-07-09, 01:18:07,VALID,919.278,VALID,0.0,VALID,98.71,VALID,-0.011,VALID,19.042,VALID,120.0,VALID,0.0,
2019-07-09, 01:19:07,VALID,919.245,VALID,0.0,VALID,98.738,VALID,0.015,VALID,19.043,VALID,125.0,VALID,0.0,
2019-07-09, 01:20:07,VALID,919.216,VALID,0.0,VALID,98.848,VALID,0.018,VALID,19.07,VALID,130.0,VALID,0.0,
2019-07-09, 01:21:07,VALID,919.18,VALID,0.0,VALID,98.943,VALID,0.011,VALID,19.099,VALID,132.0,VALID,0.0,
2019-07-09, 01:22:07,VALID,919.171,VALID,0.0,VALID,99.022,VALID,0.004,VALID,19.11,VALID,121.0,VALID,0.0,
2019-07-09, 01:23:07,VALID,919.139,VALID,0.0,VALID,99.089,VALID,0.03,VALID,19.104,VALID,120.0,VALID,0.0,
2019-07-09, 01:24:07,VALID,919.115,VALID,0.0,VALID,99.133,VALID,0.02,VALID,19.094,VALID,115.0,VALID,0.0,
2019-07-09, 01:25:07,VALID,919.086,VALID,0.0,VALID,99.175,VALID,0.03,VALID,19.08,VALID,122.0,VALID,0.0,
2019-07-09, 01:26:07,VALID,919.082,VALID,0.0,VALID,99.213,VALID,-0.0,VALID,19.064,VALID,124.0,VALID,0.0,
2019-07-09, 01:27:07,VALID,919.046,VALID,0.0,VALID,99.236,VALID,0.01,VALID,19.044,VALID,122.0,VALID,0.0,
2019-07-09, 01:28:07,VALID,919.033,VALID,0.0,VALID,99.209,VALID,0.016,VALID,19.028,VALID,115.0,VALID,0.0,
2019-07-09, 01:29:07,VALID,918.985,VALID,0.0,VALID,99.145,VALID,0.018,VALID,18.998,VALID,117.0,VALID,0.0,
2019-07-09, 01:30:07,VALID,918.964,VALID,0.0,VALID,99.114,VALID,0.021,VALID,18.976,VALID,122.0,VALID,0.0,
2019-07-09, 01:31:07,VALID,918.954,VALID,0.0,VALID,99.037,VALID,0.017,VALID,18.948,VALID,113.0,VALID,0.0,
2019-07-09, 01:32:07,VALID,918.931,VALID,0.0,VALID,98.958,VALID,-0.001,VALID,18.926,VALID,110.0,VALID,0.0,
2019-07-09, 01:33:07,VALID,918.916,VALID,0.0,VALID,98.901,VALID,-0.011,VALID,18.904,VALID,113.0,VALID,0.0,
2019-07-09, 01:34:07,VALID,918.865,VALID,0.0,VALID,98.821,VALID,-0.005,VALID,18.889,VALID,109.0,VALID,0.0,
2019-07-09, 01:35:07,VALID,918.827,VALID,0.0,VALID,98.765,VALID,0.012,VALID,18.878,VALID,99.0,VALID,0.0,
2019-07-09, 01:36:07,VALID,918.816,VALID,0.0,VALID,98.718,VALID,0.003,VALID,18.877,VALID,96.0,VALID,0.0,
2019-07-09, 01:37:07,VALID,918.786,VALID,0.0,VALID,98.665,VALID,0.003,VALID,18.86,VALID,114.0,VALID,0.0,
2019-07-09, 01:38:07,VALID,918.761,VALID,0.0,VALID,98.617,VALID,-0.017,VALID,18.856,VALID,112.0,VALID,0.0,
2019-07-09, 01:39:07,VALID,918.742,VALID,0.0,VALID,98.573,VALID,-0.008,VALID,18.846,VALID,100.0,VALID,0.0,
2019-07-09, 01:40:07,VALID,918.702,VALID,0.0,VALID,98.535,VALID,0.011,VALID,18.832,VALID,98.0,VALID,0.0,
2019-07-09, 01:41:07,VALID,918.683,VALID,0.0,VALID,98.583,VALID,-0.012,VALID,18.833,VALID,95.0,VALID,0.0,
2019-07-09, 01:42:07,VALID,918.65,VALID,0.0,VALID,98.579,VALID,-0.008,VALID,18.834,VALID,89.0,VALID,0.0,
2019-07-09, 01:43:07,VALID,918.622,VALID,0.0,VALID,98.616,VALID,0.004,VALID,18.831,VALID,81.0,VALID,0.0,
2019-07-09, 01:44:07,VALID,918.612,VALID,0.0,VALID,98.657,VALID,-0.001,VALID,18.817,VALID,79.0,VALID,0.0,
2019-07-09, 01:45:07,VALID,918.598,VALID,0.0,VALID,98.693,VALID,-0.006,VALID,18.801,VALID,87.0,VALID,0.0,
2019-07-09, 01:46:07,VALID,918.574,VALID,0.0,VALID,98.724,VALID,0.003,VALID,18.774,VALID,106.0,VALID,0.0,
2019-07-09, 01:47:07,VALID,918.526,VALID,0.0,VALID,98.821,VALID,-0.009,VALID,18.779,VALID,96.0,VALID,0.0,
2019-07-09, 01:48:07,VALID,918.495,VALID,0.0,VALID,98.963,VALID,-0.017,VALID,18.804,VALID,103.0,VALID,0.0,
2019-07-09, 01:49:07,VALID,918.47,VALID,0.0,VALID,99.08,VALID,-0.002,VALID,18.802,VALID,107.0,VALID,0.0,
2019-07-09, 01:50:07,VALID,918.451,VALID,0.0,VALID,99.124,VALID,-0.018,VALID,18.773,VALID,100.0,VALID,0.0,
2019-07-09, 01:51:07,VALID,918.398,VALID,0.0,VALID,99.183,VALID,-0.03,VALID,18.752,VALID,100.0,VALID,0.0,
2019-07-09, 01:52:07,VALID,918.383,VALID,0.0,VALID,99.19,VALID,-0.022,VALID,18.71,VALID,112.0,VALID,0.0,
2019-07-09, 01:53:07,VALID,918.337,VALID,0.0,VALID,99.244,VALID,-0.031,VALID,18.704,VALID,123.0,VALID,0.0,
2019-07-09, 01:54:06,VALID,918.303,VALID,0.0,VALID,99.256,VALID,-0.019,VALID,18.691,VALID,123.0,VALID,0.0,
2019-07-09, 01:55:06,VALID,918.291,VALID,0.0,VALID,99.269,VALID,-0.024,VALID,18.668,VALID,123.0,VALID,0.0,
2019-07-09, 01:56:06,VALID,918.273,VALID,0.0,VALID,99.311,VALID,-0.014,VALID,18.66,VALID,109.0,VALID,0.0,
2019-07-09, 01:57:06,VALID,918.276,VALID,0.0,VALID,99.337,VALID,-0.023,VALID,18.667,VALID,78.0,VALID,0.0,
2019-07-09, 01:58:06,VALID,918.275,VALID,0.0,VALID,99.347,VALID,-0.021,VALID,18.65,VALID,68.0,VALID,0.0,
2019-07-09, 01:59:06,VALID,918.267,VALID,0.0,VALID,99.342,VALID,-0.032,VALID,18.624,VALID,68.0,VALID,0.0,
2019-07-09, 02:00:06,VALID,918.289,VALID,0.0,VALID,99.394,VALID,-0.018,VALID,18.659,VALID,76.0,VALID,0.0,
2019-07-09, 02:01:06,VALID,918.282,VALID,0.0,VALID,99.374,VALID,-0.023,VALID,18.648,VALID,73.0,VALID,0.0,
2019-07-09, 02:02:06,VALID,918.281,VALID,0.0,VALID,99.381,VALID,-0.01,VALID,18.667,VALID,76.0,VALID,0.0,
2019-07-09, 02:03:06,VALID,918.294,VALID,0.0,VALID,99.373,VALID,-0.049,VALID,18.657,VALID,72.0,VALID,0.0,
2019-07-09, 02:04:06,VALID,918.304,VALID,0.0,VALID,99.353,VALID,-0.063,VALID,18.612,VALID,46.0,VALID,0.0,
2019-07-09, 02:05:06,VALID,918.3,VALID,0.0,VALID,99.301,VALID,-0.044,VALID,18.563,VALID,6.0,VALID,0.0,
2019-07-09, 02:06:06,VALID,918.308,VALID,0.0,VALID,99.231,VALID,-0.036,VALID,18.512,VALID,352.0,VALID,0.0,
2019-07-09, 02:07:06,VALID,918.298,VALID,0.0,VALID,99.241,VALID,-0.032,VALID,18.523,VALID,347.0,VALID,0.0,
2019-07-09, 02:08:06,VALID,918.305,VALID,0.0,VALID,99.255,VALID,-0.031,VALID,18.549,VALID,347.0,VALID,0.0,
2019-07-09, 02:09:06,VALID,918.308,VALID,0.0,VALID,99.285,VALID,-0.048,VALID,18.557,VALID,346.0,VALID,0.0,
2019-07-09, 02:10:06,VALID,918.311,VALID,0.0,VALID,99.296,VALID,-0.039,VALID,18.552,VALID,337.0,VALID,0.0,
2019-07-09, 02:11:06,VALID,918.312,VALID,0.0,VALID,99.296,VALID,-0.039,VALID,18.544,VALID,313.0,VALID,0.0,
2019-07-09, 02:12:06,VALID,918.282,VALID,0.0,VALID,99.37,VALID,-0.039,VALID,18.565,VALID,303.0,VALID,0.0,
2019-07-09, 02:13:06,VALID,918.259,VALID,0.0,VALID,99.411,VALID,-0.053,VALID,18.601,INVALID,360.0,VALID,0.0,
2019-07-09, 02:14:06,VALID,918.251,VALID,0.0,VALID,99.444,VALID,-0.03,VALID,18.613,VALID,247.0,VALID,0.0,
2019-07-09, 02:15:06,VALID,918.214,VALID,0.0,VALID,99.456,VALID,-0.031,VALID,18.607,VALID,293.0,VALID,0.0,
2019-07-09, 02:16:06,VALID,918.186,VALID,0.0,VALID,99.471,VALID,-0.042,VALID,18.588,VALID,348.0,VALID,0.0,
2019-07-09, 02:17:06,VALID,918.157,VALID,0.0,VALID,99.491,VALID,-0.041,VALID,18.577,VALID,20.0,VALID,0.0,
2019-07-09, 02:18:06,VALID,918.112,VALID,0.0,VALID,99.5,VALID,-0.024,VALID,18.551,VALID,22.0,VALID,0.0,
2019-07-09, 02:19:06,VALID,918.104,VALID,0.0,VALID,99.525,VALID,-0.03,VALID,18.576,VALID,2.0,VALID,0.0,
2019-07-09, 02:20:06,VALID,918.079,VALID,0.0,VALID,99.556,VALID,-0.035,VALID,18.573,VALID,28.0,VALID,0.0,
2019-07-09, 02:21:06,VALID,918.061,VALID,0.0,VALID,99.581,VALID,-0.027,VALID,18.568,VALID,10.0,VALID,0.0,
2019-07-09, 02:22:06,VALID,918.056,VALID,0.0,VALID,99.589,VALID,-0.042,VALID,18.54,VALID,5.0,VALID,0.0,
2019-07-09, 02:23:06,VALID,918.062,VALID,0.0,VALID,99.616,VALID,-0.027,VALID,18.535,VALID,359.0,VALID,0.0,
2019-07-09, 02:24:06,VALID,918.08,VALID,0.0,VALID,99.606,VALID,-0.024,VALID,18.504,VALID,360.0,VALID,0.0,
2019-07-09, 02:25:06,VALID,918.09,VALID,0.0,VALID,99.645,VALID,-0.013,VALID,18.479,VALID,351.0,VALID,0.0,
2019-07-09, 02:26:06,VALID,918.059,VALID,0.0,VALID,99.651,VALID,-0.014,VALID,18.457,VALID,353.0,VALID,0.0,
2019-07-09, 02:27:06,VALID,918.077,VALID,0.0,VALID,99.648,VALID,-0.02,VALID,18.433,VALID,19.0,VALID,0.0,
2019-07-09, 02:28:06,VALID,918.067,VALID,0.0,VALID,99.662,VALID,-0.032,VALID,18.414,VALID,37.0,VALID,0.0,
2019-07-09, 02:29:06,VALID,918.053,VALID,0.0,VALID,99.649,VALID,-0.03,VALID,18.403,VALID,43.0,VALID,0.0,
2019-07-09, 02:30:06,VALID,918.059,VALID,0.0,VALID,99.654,VALID,-0.027,VALID,18.407,VALID,37.0,VALID,0.0,
2019-07-09, 02:31:06,VALID,918.063,VALID,0.0,VALID,99.654,VALID,-0.037,VALID,18.395,VALID,18.0,VALID,0.0,
2019-07-09, 02:32:06,VALID,918.042,VALID,0.0,VALID,99.666,VALID,-0.034,VALID,18.381,VALID,358.0,VALID,0.0,
2019-07-09, 02:33:06,VALID,918.032,VALID,0.0,VALID,99.664,VALID,0.066,VALID,18.372,VALID,333.0,VALID,0.0,
2019-07-09, 02:34:06,VALID,918.028,VALID,0.0,VALID,99.684,VALID,0.065,VALID,18.392,VALID,332.0,VALID,0.0,
2019-07-09, 02:35:06,VALID,918.026,VALID,0.0,VALID,99.677,VALID,0.064,VALID,18.375,VALID,17.0,VALID,0.0,
2019-07-09, 02:36:06,VALID,918.018,VALID,0.0,VALID,99.628,VALID,0.057,VALID,18.29,VALID,113.0,VALID,0.0,
2019-07-09, 02:37:06,VALID,918.056,VALID,0.0,VALID,99.57,VALID,0.053,VALID,18.218,VALID,124.0,VALID,0.0,
2019-07-09, 02:38:06,VALID,918.049,VALID,0.0,VALID,99.596,VALID,0.067,VALID,18.23,VALID,127.0,VALID,0.0,
2019-07-09, 02:39:06,VALID,918.065,VALID,0.0,VALID,99.604,VALID,0.071,VALID,18.253,VALID,119.0,VALID,0.0,
2019-07-09, 02:40:06,VALID,918.074,VALID,0.0,VALID,99.602,VALID,0.049,VALID,18.242,VALID,122.0,VALID,0.0,
2019-07-09, 02:41:06,VALID,918.064,VALID,0.0,VALID,99.614,VALID,0.069,VALID,18.243,VALID,130.0,VALID,0.0,
2019-07-09, 02:42:06,VALID,918.083,VALID,0.0,VALID,99.631,VALID,0.055,VALID,18.284,VALID,122.0,VALID,0.0,
2019-07-09, 02:43:06,VALID,918.065,VALID,0.0,VALID,99.634,VALID,0.073,VALID,18.293,VALID,119.0,VALID,0.0,
2019-07-09, 02:44:06,VALID,918.071,VALID,0.0,VALID,99.647,VALID,0.048,VALID,18.312,VALID,124.0,VALID,0.0,
2019-07-09, 02:45:06,VALID,918.063,VALID,0.0,VALID,99.706,VALID,0.079,VALID,18.363,VALID,127.0,VALID,0.0,
2019-07-09, 02:46:06,VALID,918.052,VALID,0.0,VALID,99.716,VALID,0.074,VALID,18.387,VALID,121.0,VALID,0.0,
2019-07-09, 02:47:06,VALID,918.056,VALID,0.0,VALID,99.713,VALID,0.062,VALID,18.384,VALID,115.0,VALID,0.0,
2019-07-09, 02:48:06,VALID,918.044,VALID,0.0,VALID,99.73,VALID,-0.044,VALID,18.366,VALID,112.0,VALID,0.0,
2019-07-09, 02:49:06,VALID,918.041,VALID,0.0,VALID,99.729,VALID,-0.054,VALID,18.349,VALID,111.0,VALID,0.0,
2019-07-09, 02:50:06,VALID,918.053,VALID,0.0,VALID,99.729,VALID,-0.044,VALID,18.324,VALID,114.0,VALID,0.0,
2019-07-09, 02:51:06,VALID,918.057,VALID,0.0,VALID,99.757,VALID,-0.049,VALID,18.327,VALID,119.0,VALID,0.0,
2019-07-09, 02:52:06,VALID,918.059,VALID,0.0,VALID,99.768,VALID,-0.035,VALID,18.335,VALID,122.0,VALID,0.0,
2019-07-09, 02:53:06,VALID,918.079,VALID,0.0,VALID,99.779,VALID,-0.04,VALID,18.353,VALID,123.0,VALID,0.0,
2019-07-09, 02:54:06,VALID,918.075,VALID,0.0,VALID,99.811,VALID,-0.03,VALID,18.36,VALID,112.0,VALID,0.0,
2019-07-09, 02:55:06,VALID,918.071,VALID,0.0,VALID,99.798,VALID,-0.037,VALID,18.353,VALID,116.0,VALID,0.0,
2019-07-09, 02:56:06,VALID,918.091,VALID,0.0,VALID,99.823,VALID,-0.049,VALID,18.349,VALID,119.0,VALID,0.0,
2019-07-09, 02:57:06,VALID,918.095,VALID,0.0,VALID,99.821,VALID,-0.021,VALID,18.353,VALID,120.0,VALID,0.0,
2019-07-09, 02:58:06,VALID,918.12,VALID,0.0,VALID,99.815,VALID,-0.024,VALID,18.332,VALID,108.0,VALID,0.0,
2019-07-09, 02:59:06,VALID,918.161,VALID,0.0,VALID,99.835,VALID,-0.059,VALID,18.332,VALID,101.0,VALID,0.0,
2019-07-09, 03:00:06,VALID,918.15,VALID,0.0,VALID,99.831,VALID,-0.042,VALID,18.336,VALID,101.0,VALID,0.0,
2019-07-09, 03:01:06,VALID,918.169,VALID,0.0,VALID,99.833,VALID,-0.038,VALID,18.337,VALID,102.0,VALID,0.0,
2019-07-09, 03:02:06,VALID,918.195,VALID,0.0,VALID,99.83,VALID,-0.036,VALID,18.35,VALID,106.0,VALID,0.0,
2019-07-09, 03:03:06,VALID,918.206,VALID,0.0,VALID,99.845,VALID,0.009,VALID,18.357,VALID,106.0,VALID,0.0,
2019-07-09, 03:04:06,VALID,918.216,VALID,0.0,VALID,99.849,VALID,0.007,VALID,18.342,VALID,112.0,VALID,0.0,
2019-07-09, 03:05:06,VALID,918.247,VALID,0.0,VALID,99.857,VALID,0.018,VALID,18.287,VALID,116.0,VALID,0.0,
2019-07-09, 03:06:06,VALID,918.265,VALID,0.0,VALID,99.842,VALID,-0.004,VALID,18.227,VALID,113.0,VALID,0.0,
2019-07-09, 03:07:06,VALID,918.277,VALID,0.0,VALID,99.841,VALID,-0.001,VALID,18.185,VALID,110.0,VALID,0.0,
2019-07-09, 03:08:06,VALID,918.279,VALID,0.0,VALID,99.842,VALID,-0.005,VALID,18.169,VALID,112.0,VALID,0.0,
2019-07-09, 03:09:06,VALID,918.277,VALID,0.0,VALID,99.857,VALID,-0.013,VALID,18.184,VALID,118.0,VALID,0.0,
2019-07-09, 03:10:06,VALID,918.259,VALID,0.0,VALID,99.858,VALID,-0.003,VALID,18.179,VALID,114.0,VALID,0.0,
2019-07-09, 03:11:06,VALID,918.257,VALID,0.0,VALID,99.855,VALID,0.003,VALID,18.174,VALID,118.0,VALID,0.0,
2019-07-09, 03:12:06,VALID,918.248,VALID,0.0,VALID,99.869,VALID,-0.004,VALID,18.177,VALID,114.0,VALID,0.0,
2019-07-09, 03:13:06,VALID,918.235,VALID,0.0,VALID,99.876,VALID,0.002,VALID,18.191,VALID,111.0,VALID,0.0,
2019-07-09, 03:14:06,VALID,918.228,VALID,0.0,VALID,99.885,VALID,-0.004,VALID,18.184,VALID,126.0,VALID,0.0,
2019-07-09, 03:15:06,VALID,918.228,VALID,0.0,VALID,99.885,VALID,0.008,VALID,18.176,VALID,140.0,VALID,0.0,
2019-07-09, 03:16:06,VALID,918.251,VALID,0.0,VALID,99.895,VALID,0.003,VALID,18.159,VALID,120.0,VALID,0.0,
2019-07-09, 03:17:06,VALID,918.263,VALID,0.0,VALID,99.859,VALID,-0.008,VALID,18.07,VALID,120.0,VALID,0.0,
2019-07-09, 03:18:06,VALID,918.256,VALID,0.0,VALID,99.88,VALID,-0.03,VALID,18.039,VALID,122.0,VALID,0.0,
2019-07-09, 03:19:06,VALID,918.278,VALID,0.0,VALID,99.853,VALID,-0.044,VALID,18.049,VALID,116.0,VALID,0.0,
2019-07-09, 03:20:06,VALID,918.279,VALID,0.0,VALID,99.844,VALID,-0.033,VALID,18.049,VALID,110.0,VALID,0.0,
2019-07-09, 03:21:06,VALID,918.252,VALID,0.0,VALID,99.814,VALID,-0.049,VALID,18.026,VALID,108.0,VALID,0.0,
2019-07-09, 03:22:06,VALID,918.287,VALID,0.0,VALID,99.779,VALID,-0.043,VALID,18.022,VALID,109.0,VALID,0.0,
2019-07-09, 03:23:06,VALID,918.287,VALID,0.0,VALID,99.754,VALID,-0.025,VALID,17.999,VALID,107.0,VALID,0.0,
2019-07-09, 03:24:06,VALID,918.293,VALID,0.0,VALID,99.74,VALID,-0.039,VALID,17.952,VALID,107.0,VALID,0.0,
2019-07-09, 03:25:06,VALID,918.319,VALID,0.0,VALID,99.701,VALID,-0.041,VALID,17.923,VALID,101.0,VALID,0.0,
2019-07-09, 03:26:06,VALID,918.318,VALID,0.0,VALID,99.652,VALID,-0.033,VALID,17.919,VALID,103.0,VALID,0.0,
2019-07-09, 03:27:06,VALID,918.312,VALID,0.0,VALID,99.62,VALID,-0.032,VALID,17.913,VALID,108.0,VALID,0.0,
2019-07-09, 03:28:06,VALID,918.31,VALID,0.0,VALID,99.585,VALID,-0.021,VALID,17.91,VALID,115.0,VALID,0.0,
2019-07-09, 03:29:06,VALID,918.312,VALID,0.0,VALID,99.571,VALID,-0.029,VALID,17.922,VALID,116.0,VALID,0.0,
2019-07-09, 03:30:06,VALID,918.315,VALID,0.0,VALID,99.494,VALID,-0.032,VALID,17.916,VALID,105.0,VALID,0.0,
2019-07-09, 03:31:06,VALID,918.298,VALID,0.0,VALID,99.424,VALID,-0.033,VALID,17.894,VALID,103.0,VALID,0.0,
2019-07-09, 03:32:06,VALID,918.29,VALID,0.0,VALID,99.379,VALID,-0.023,VALID,17.886,VALID,109.0,VALID,0.0,
2019-07-09, 03:33:06,VALID,918.294,VALID,0.0,VALID,99.35,VALID,-0.009,VALID,17.9,VALID,115.0,VALID,0.0,
2019-07-09, 03:34:06,VALID,918.284,VALID,0.0,VALID,99.317,VALID,-0.013,VALID,17.916,VALID,115.0,VALID,0.0,
2019-07-09, 03:35:06,VALID,918.298,VALID,0.0,VALID,99.213,VALID,-0.007,VALID,17.908,VALID,113.0,VALID,0.0,
2019-07-09, 03:36:06,VALID,918.324,VALID,0.0,VALID,99.109,VALID,-0.013,VALID,17.871,VALID,101.0,VALID,0.0,
2019-07-09, 03:37:06,VALID,918.313,VALID,0.0,VALID,99.085,VALID,-0.015,VALID,17.835,VALID,117.0,VALID,0.0,
2019-07-09, 03:38:06,VALID,918.337,VALID,0.0,VALID,99.017,VALID,-0.014,VALID,17.793,VALID,131.0,VALID,0.0,
2019-07-09, 03:39:06,VALID,918.331,VALID,0.0,VALID,99.067,VALID,0.002,VALID,17.802,VALID,124.0,VALID,0.0,
2019-07-09, 03:40:06,VALID,918.33,VALID,0.0,VALID,98.992,VALID,-0.004,VALID,17.803,VALID,116.0,VALID,0.0,
2019-07-09, 03:41:06,VALID,918.315,VALID,0.0,VALID,98.909,VALID,0.001,VALID,17.794,VALID,99.0,VALID,0.0,
2019-07-09, 03:42:06,VALID,918.289,VALID,0.0,VALID,98.865,VALID,-0.012,VALID,17.771,VALID,91.0,VALID,0.0,